Regional Weather Roundup
Issued by NWS Newport/Morehead, NC

Current Version | Previous Version | Text Only | Print | Product List | Glossary Off
Versions: 1 2 3 4 5 6 7 8 9 10 11 12 13 14 15 16 17 18 19 20 21 22 23 24 25 26 27 28 29 30 31 32 33 34 35 36 37 38 39 40 41 42 43 44 45 46 47 48 49 50
000 ASUS42 KMHX 251824 RWRMHX WEATHER ROUNDUP FOR EASTERN NORTH CAROLINA NATIONAL WEATHER SERVICE NEWPORT/MOREHEAD CITY NC 200 PM EDT MON MAY 25 2015 NOTE: "FAIR" INDICATES FEW OR NO CLOUDS BELOW 12,000 FEET WITH NO SIGNIFICANT WEATHER AND/OR OBSTRUCTIONS TO VISIBILITY NCZ015>017-031-032-045>047-102-103-251900- NORTH COAST CITY SKY/WX TMP DP RH WIND PRES REMARKS EDENTON N/A 81 61 50 SE12 30.32F ELIZABETH CITY SUNNY 80 62 54 SE13 30.33F KITTY HAWK CLEAR 78 57 49 S7 30.34F MANTEO SUNNY 76 60 56 S12 30.36S $$ NCZ045>047-081-094-103-104-251900- CENTRAL COAST CITY SKY/WX TMP DP RH WIND PRES REMARKS FRISCO MOSUNNY 78 57 48 S7 30.36F SWANQUARTER N/A 79 N/A N/A S9G16 30.30F $$ NCZ095-097-098-100-101-251900- SOUTHERN COAST CITY SKY/WX TMP DP RH WIND PRES REMARKS BEAUFORT MOSUNNY 77 62 59 S13 30.34F CEDAR ISLAND N/A 79 N/A N/A SE14 30.39S JACKSONVILLE SUNNY 80 56 43 S12 30.33F PINEY ISLAND PTCLDY N/A N/A N/A S9 30.34F WILMINGTON MOSUNNY 79 60 52 SE12G17 30.33F $$ NCZ011>013-027>030-043-044-078>080-089-090>093-098-251900- COASTAL PLAIN CITY SKY/WX TMP DP RH WIND PRES REMARKS AHOSKIE SUNNY 80 57 45 S10 30.31F CLINTON SUNNY 82 60 46 SE7 30.31F ELIZABETHTOWN SUNNY 82 53 35 S9 30.30F GOLDSBORO MOSUNNY 82 58 43 VRB2 30.29F GREENVILLE SUNNY 82 55 39 SE10 30.32F HAVELOCK SUNNY 79 57 46 SE9 30.34F KENANSVILLE SUNNY 81 52 35 SE3 30.33S KINSTON SUNNY 82 54 36 S7 30.32F NEW BERN SUNNY 83 55 38 S9 30.34F RICHLANDS SUNNY 82 55 39 S9 30.32F ROCKY MOUNT SUNNY 83 56 39 SE10 30.31F WASHINGTON SUNNY 80 58 46 SE13 30.32F WHITEVILLE SUNNY 81 56 42 S8 30.30F $$ AMZ130-135-150-152-154-156-158-170-250-252-270-ANZ085-086-088-633-658-670-251900- MARINE OBSERVATIONS STATION/POSITION TIME TEMP WIND PRES WAVE SWELL AIR SEA DIR/SP/G HT/PER HT/PER (UTC) (F) (DEG/KT/KT) (MB) (FT/S) (FT/S) CHESAPEAKE LIGHT 1800 69 160/ 19/ 20 1027.4 64 E VA BEACH 1750 67 64 160/ 6/ 6 1027.7 1/ 8 2/ 8 DUCK 1800 70 63 130/ 15/ 16 1026.4 2 E DUCK 1711 66 N/A 1/ 8 OREGON INLET 1800 74 74 180/ 10/ 13 1028.0 13E OREGON INLT 1800 70 N/A 1/ 7 HATTERAS CG 1800 76 75 160/ 7/ 9 1027.6 DIAMOND BUOY 1750 74 78 150/ 8/ 12 1028.3 2/ 8 2/ 8 CAPE LOOKOUT 1800 74 150/ 7/ 8 1027.4 BEAUFORT LAB 1800 75 74 170/ 9/ 12 1026.7 27 SE WRIGHTSVLE 1800 72 77 160/ 10/ 12 N/A 5 SE WRIGHTSVLE 1708 75 77 150/ 8/ 12 1027.6 225 S CAPE HAT 1750 74 74 120/ 14/ 16 1027.2 3/ 6 2/ 6 41 SE CHARLESTON 1750 76 76 90/ 10/ 14 1025.6 4/ 7 3/ 7 $$

USA.gov is the U.S. government's official web portal to all federal, state and local government web resources and services.